BCS25Q ENBR-ENZV

Flight info

Callsign BCS25Q
Flight time 0h 25m
Altitude 17000
Route BEGOD
Aircraft B738/M-SDE2E3FGHIRWXY/LB1

Departure

Time 2026-05-06 18:16
Airport Bergen Airport, Flesland (ENBR)

Arrival

Time 2026-05-06 18:41
Airport Stavanger Airport, Sola (ENZV)
Time Latitude Longitude Altitude Speed Heading
2026-05-06 17:47 60.28528 5.22674 173 ft 0 kts 82°
2026-05-06 18:05 60.28525 5.22632 173 ft 4 kts 82°
2026-05-06 18:05 60.28520 5.22578 173 ft 4 kts 82°
2026-05-06 18:05 60.28519 5.22558 173 ft 0 kts 82°
2026-05-06 18:08 60.28519 5.22559 173 ft 0 kts 81°
2026-05-06 18:08 60.28523 5.22563 173 ft 1 kts 35°
2026-05-06 18:08 60.28543 5.22548 173 ft 5 kts 332°
2026-05-06 18:08 60.28581 5.22514 173 ft 6 kts 343°
2026-05-06 18:09 60.28593 5.22508 173 ft 3 kts 349°
2026-05-06 18:09 60.28610 5.22502 173 ft 0 kts 349°
2026-05-06 18:09 60.28614 5.22500 173 ft 3 kts 349°
2026-05-06 18:10 60.28675 5.22482 173 ft 13 kts 352°
2026-05-06 18:10 60.28751 5.22459 173 ft 9 kts 352°
2026-05-06 18:10 60.28820 5.22436 173 ft 10 kts 350°
2026-05-06 18:10 60.28850 5.22426 173 ft 1 kts 349°
2026-05-06 18:11 60.28874 5.22417 173 ft 6 kts 349°
2026-05-06 18:11 60.28933 5.22396 173 ft 11 kts 351°
2026-05-06 18:11 60.29030 5.22366 173 ft 17 kts 351°
2026-05-06 18:11 60.29153 5.22327 176 ft 19 kts 351°
2026-05-06 18:12 60.29286 5.22282 176 ft 20 kts 350°
2026-05-06 18:12 60.29417 5.22240 175 ft 20 kts 350°
2026-05-06 18:12 60.29569 5.22181 170 ft 24 kts 349°
2026-05-06 18:12 60.29715 5.22101 167 ft 19 kts 313°
2026-05-06 18:13 60.29827 5.21979 167 ft 20 kts 350°
2026-05-06 18:13 60.29969 5.21932 167 ft 22 kts 352°
2026-05-06 18:13 60.30122 5.21885 170 ft 22 kts 351°
2026-05-06 18:13 60.30287 5.21827 169 ft 25 kts 351°
2026-05-06 18:14 60.30456 5.21774 171 ft 23 kts 351°
2026-05-06 18:14 60.30583 5.21733 175 ft 17 kts 351°
2026-05-06 18:14 60.30667 5.21609 177 ft 15 kts 274°
2026-05-06 18:14 60.30639 5.21417 179 ft 13 kts 218°
2026-05-06 18:15 60.30602 5.21403 178 ft 0 kts 171°
2026-05-06 18:15 60.30587 5.21408 177 ft 9 kts 170°
2026-05-06 18:16 60.30287 5.21508 166 ft 93 kts 171°
2026-05-06 18:16 60.29360 5.21809 300 ft 163 kts 171°
2026-05-06 18:16 60.28241 5.22144 1424 ft 159 kts 175°
2026-05-06 18:16 60.27182 5.22459 2641 ft 154 kts 173°
2026-05-06 18:17 60.26049 5.22816 3382 ft 181 kts 174°
2026-05-06 18:17 60.24671 5.23256 3751 ft 218 kts 173°
2026-05-06 18:17 60.23098 5.23775 4188 ft 241 kts 173°
2026-05-06 18:17 60.21429 5.24339 5058 ft 245 kts 172°
2026-05-06 18:18 60.19743 5.24915 5954 ft 248 kts 173°
2026-05-06 18:18 60.18027 5.25360 6839 ft 249 kts 182°
2026-05-06 18:18 60.16281 5.25165 7659 ft 259 kts 188°
2026-05-06 18:18 60.14422 5.24776 8505 ft 274 kts 189°
2026-05-06 18:19 60.12504 5.24360 9672 ft 280 kts 189°
2026-05-06 18:19 60.10538 5.23951 10699 ft 292 kts 189°
2026-05-06 18:19 60.08420 5.23525 11304 ft 316 kts 189°
2026-05-06 18:19 60.06164 5.23098 12312 ft 326 kts 190°
2026-05-06 18:20 60.03913 5.22692 13495 ft 331 kts 191°
2026-05-06 18:20 60.01606 5.22287 14698 ft 334 kts 192°
2026-05-06 18:20 59.99287 5.21887 15930 ft 336 kts 192°
2026-05-06 18:20 59.96949 5.21485 16862 ft 340 kts 192°
2026-05-06 18:21 59.94600 5.21085 17054 ft 338 kts 193°
2026-05-06 18:21 59.92265 5.20691 17044 ft 336 kts 193°
2026-05-06 18:21 59.89947 5.20303 17053 ft 333 kts 193°
2026-05-06 18:21 59.87637 5.19912 17049 ft 333 kts 193°
2026-05-06 18:22 59.85327 5.19520 17051 ft 333 kts 193°
2026-05-06 18:22 59.82986 5.19123 17054 ft 334 kts 193°
2026-05-06 18:22 59.80671 5.18732 17050 ft 334 kts 193°
2026-05-06 18:22 59.78380 5.18344 17018 ft 335 kts 193°
2026-05-06 18:23 59.76064 5.17955 17051 ft 334 kts 192°
2026-05-06 18:23 59.73746 5.17566 17047 ft 334 kts 192°
2026-05-06 18:23 59.71424 5.17176 17060 ft 334 kts 192°
2026-05-06 18:23 59.69109 5.16788 17059 ft 335 kts 192°
2026-05-06 18:24 59.66789 5.16399 17053 ft 335 kts 192°
2026-05-06 18:24 59.64468 5.16012 17059 ft 335 kts 192°
2026-05-06 18:24 59.62124 5.15899 17046 ft 340 kts 185°
2026-05-06 18:24 59.59755 5.16267 17053 ft 342 kts 182°
2026-05-06 18:25 59.57385 5.16755 17050 ft 342 kts 181°
2026-05-06 18:25 59.55017 5.17239 17052 ft 342 kts 182°
2026-05-06 18:25 59.52655 5.17688 17053 ft 341 kts 182°
2026-05-06 18:25 59.50285 5.18119 17051 ft 342 kts 181°
2026-05-06 18:26 59.47922 5.18890 17032 ft 345 kts 176°
2026-05-06 18:26 59.45577 5.19897 17040 ft 344 kts 174°
2026-05-06 18:26 59.44054 5.20597 17032 ft 335 kts 174°
2026-05-06 18:26 59.41839 5.21628 17024 ft 318 kts 174°
2026-05-06 18:27 59.39745 5.22594 17030 ft 301 kts 175°
2026-05-06 18:27 59.37754 5.23494 17030 ft 286 kts 176°
2026-05-06 18:27 59.35860 5.24333 17029 ft 272 kts 176°
2026-05-06 18:27 59.34057 5.25122 17030 ft 259 kts 177°
2026-05-06 18:28 59.32341 5.25866 17031 ft 246 kts 178°
2026-05-06 18:28 59.30708 5.26570 17027 ft 234 kts 178°
2026-05-06 18:28 59.29147 5.27237 17036 ft 227 kts 179°
2026-05-06 18:28 59.27613 5.27885 16996 ft 225 kts 179°
2026-05-06 18:29 59.26064 5.28529 16540 ft 232 kts 178°
2026-05-06 18:29 59.24417 5.29202 15613 ft 253 kts 177°
2026-05-06 18:29 59.22613 5.29939 14717 ft 278 kts 175°
2026-05-06 18:29 59.20623 5.30761 14362 ft 302 kts 174°
2026-05-06 18:30 59.18583 5.31630 14223 ft 300 kts 174°
2026-05-06 18:30 59.16550 5.32503 14099 ft 299 kts 174°
2026-05-06 18:30 59.14524 5.33371 13890 ft 299 kts 174°
2026-05-06 18:30 59.12487 5.34237 13388 ft 299 kts 173°
2026-05-06 18:31 59.10459 5.35097 12881 ft 298 kts 173°
2026-05-06 18:31 59.08438 5.35951 12322 ft 296 kts 173°
2026-05-06 18:31 59.06440 5.36795 11710 ft 292 kts 172°
2026-05-06 18:31 59.04467 5.37626 11106 ft 287 kts 172°
2026-05-06 18:32 59.02528 5.38441 10525 ft 284 kts 171°
2026-05-06 18:32 59.00607 5.39246 9947 ft 281 kts 171°
2026-05-06 18:32 58.98730 5.40031 9310 ft 278 kts 170°
2026-05-06 18:32 58.96849 5.40817 8709 ft 276 kts 170°
2026-05-06 18:33 58.94975 5.41599 8097 ft 275 kts 169°
2026-05-06 18:33 58.93113 5.42375 7493 ft 273 kts 169°
2026-05-06 18:33 58.91262 5.43147 6968 ft 269 kts 169°
2026-05-06 18:33 58.89430 5.43909 6541 ft 271 kts 169°
2026-05-06 18:34 58.87577 5.44679 6094 ft 273 kts 169°
2026-05-06 18:34 58.85706 5.45456 5607 ft 275 kts 168°
2026-05-06 18:34 58.83841 5.46231 5091 ft 272 kts 168°
2026-05-06 18:34 58.82001 5.46994 4558 ft 268 kts 168°
2026-05-06 18:35 58.80201 5.47739 4114 ft 260 kts 168°
2026-05-06 18:35 58.78492 5.48446 3995 ft 242 kts 168°
2026-05-06 18:35 58.76881 5.49111 3759 ft 234 kts 168°
2026-05-06 18:35 58.75307 5.49760 3578 ft 231 kts 168°
2026-05-06 18:36 58.73771 5.50397 3466 ft 227 kts 166°
2026-05-06 18:36 58.72385 5.51762 3357 ft 224 kts 131°
2026-05-06 18:36 58.71701 5.54308 3276 ft 214 kts 96°
2026-05-06 18:36 58.71747 5.57048 3170 ft 201 kts 70°
2026-05-06 18:37 58.72215 5.59585 2985 ft 200 kts 64°
2026-05-06 18:37 58.72721 5.62067 2802 ft 197 kts 60°
2026-05-06 18:37 58.73605 5.63934 2741 ft 189 kts 21°
2026-05-06 18:37 58.74882 5.64181 2546 ft 184 kts 355°
2026-05-06 18:38 58.76113 5.64106 2288 ft 168 kts 359°
2026-05-06 18:38 58.77216 5.64094 2080 ft 148 kts 358°
2026-05-06 18:38 58.78223 5.64070 1876 ft 141 kts 358°
2026-05-06 18:38 58.79190 5.64041 1679 ft 139 kts 357°
2026-05-06 18:39 58.80163 5.64010 1486 ft 141 kts 357°
2026-05-06 18:39 58.81145 5.63980 1259 ft 136 kts 358°
2026-05-06 18:39 58.82028 5.63955 1078 ft 120 kts 357°
2026-05-06 18:40 58.83568 5.63911 765 ft 111 kts 358°
2026-05-06 18:40 58.84325 5.63889 627 ft 107 kts 357°
2026-05-06 18:40 58.85072 5.63867 480 ft 108 kts 356°
2026-05-06 18:40 58.85838 5.63850 318 ft 111 kts 358°
2026-05-06 18:41 58.86615 5.63834 167 ft 110 kts 355°
2026-05-06 18:41 58.87366 5.63803 50 ft 103 kts 353°
2026-05-06 18:41 58.87995 5.63769 31 ft 77 kts
2026-05-06 18:41 58.88461 5.63757 29 ft 46 kts 359°
2026-05-06 18:42 58.88665 5.63744 27 ft 16 kts 344°
2026-05-06 18:42 58.88707 5.63617 27 ft 12 kts 272°
2026-05-06 18:42 58.88704 5.63485 31 ft 10 kts 248°
2026-05-06 18:42 58.88636 5.63420 31 ft 14 kts 180°
2026-05-06 18:43 58.88521 5.63423 30 ft 15 kts 178°
2026-05-06 18:43 58.88455 5.63380 28 ft 12 kts 232°
2026-05-06 18:43 58.88424 5.63206 27 ft 16 kts 262°
2026-05-06 18:43 58.88482 5.63023 24 ft 18 kts 315°
2026-05-06 18:44 58.88567 5.62884 23 ft 13 kts 329°
2026-05-06 18:44 58.88606 5.62811 29 ft 6 kts 289°
2026-05-06 18:44 58.88605 5.62748 25 ft 6 kts 261°
2026-05-06 18:44 58.88601 5.62710 24 ft 0 kts 260°